Time,TemperatureF,DewpointF,PressureIn,WindDirection,WindDirectionDegrees,WindSpeedMPH,WindSpeedGustMPH,Humidity,HourlyPrecipIn,Conditions,Clouds,dailyrainin,SoftwareType,DateUTC
2013-04-20 00:13:00,46.9,34.6,30.48,WSW,242,1.0,7.0,62,0.00,CLR,,0.00,WeatherDisplay:10.37,2013-04-19 23:13:00,
2013-04-20 00:28:00,46.8,35.2,30.48,WSW,256,6.0,6.0,64,0.00,CLR,,0.00,WeatherDisplay:10.37,2013-04-19 23:28:00,
2013-04-20 00:43:00,46.8,36.0,30.48,West,270,2.0,6.0,66,0.00,CLR,,0.00,WeatherDisplay:10.37,2013-04-19 23:43:00,
2013-04-20 00:58:00,46.8,36.4,30.48,WSW,248,1.0,3.0,67,0.00,CLR,,0.00,WeatherDisplay:10.37,2013-04-19 23:58:00,
2013-04-20 01:13:00,46.8,36.4,30.48,SW,233,0.0,2.0,67,0.00,CLR,,0.00,WeatherDisplay:10.37,2013-04-20 00:13:00,
2013-04-20 01:28:00,46.8,36.4,30.48,West,265,0.0,0.0,67,0.00,CLR,,0.00,WeatherDisplay:10.37,2013-04-20 00:28:00,
2013-04-20 01:43:00,46.4,36.1,30.48,WNW,293,0.0,2.0,67,0.00,CLR,,0.00,WeatherDisplay:10.37,2013-04-20 00:43:00,
2013-04-20 01:58:00,45.9,35.9,30.48,WSW,241,0.0,0.0,68,0.00,CLR,,0.00,WeatherDisplay:10.37,2013-04-20 00:58:00,
2013-04-20 02:13:00,45.7,36.1,30.48,West,279,0.0,0.0,69,0.00,CLR,,0.00,WeatherDisplay:10.37,2013-04-20 01:13:00,
2013-04-20 02:28:00,45.7,36.5,30.48,WNW,286,0.0,0.0,70,0.00,CLR,,0.00,WeatherDisplay:10.37,2013-04-20 01:28:00,
2013-04-20 02:43:00,45.7,36.8,30.48,WNW,292,0.0,0.0,71,0.00,CLR,,0.00,WeatherDisplay:10.37,2013-04-20 01:43:00,
2013-04-20 02:58:00,45.3,36.5,30.48,West,276,0.0,0.0,71,0.00,CLR,,0.00,WeatherDisplay:10.37,2013-04-20 01:58:00,
2013-04-20 03:13:00,45.3,37.2,30.44,West,279,0.0,3.0,73,0.00,CLR,,0.00,WeatherDisplay:10.37,2013-04-20 02:13:00,
2013-04-20 03:28:00,45.5,37.3,30.44,SSE,167,0.0,0.0,73,0.00,CLR,,0.00,WeatherDisplay:10.37,2013-04-20 02:28:00,
2013-04-20 03:43:00,45.7,38.2,30.48,NNW,334,0.0,0.0,75,0.00,CLR,,0.00,WeatherDisplay:10.37,2013-04-20 02:43:00,
2013-04-20 03:58:00,45.9,38.7,30.48,WSW,248,0.0,0.0,76,0.00,CLR,,0.00,WeatherDisplay:10.37,2013-04-20 02:58:00,
2013-04-20 04:13:00,46.0,38.9,30.48,West,270,0.0,0.0,76,0.00,CLR,,0.00,WeatherDisplay:10.37,2013-04-20 03:13:00,
2013-04-20 04:28:00,46.0,38.9,30.44,North,354,0.0,0.0,76,0.00,CLR,,0.00,WeatherDisplay:10.37,2013-04-20 03:28:00,
2013-04-20 04:43:00,46.0,39.2,30.44,NNE,22,0.0,0.0,77,0.00,CLR,,0.00,WeatherDisplay:10.37,2013-04-20 03:43:00,
2013-04-20 04:58:00,45.9,39.1,30.44,WNW,299,0.0,0.0,77,0.00,CLR,,0.00,WeatherDisplay:10.37,2013-04-20 03:58:00,
2013-04-20 05:13:00,45.3,38.5,30.44,SE,141,0.0,0.0,77,0.00,CLR,,0.00,WeatherDisplay:10.37,2013-04-20 04:13:00,
2013-04-20 05:28:00,44.4,37.3,30.44,ESE,102,0.0,0.0,76,0.00,CLR,,0.00,WeatherDisplay:10.37,2013-04-20 04:28:00,
2013-04-20 05:43:00,43.5,36.5,30.44,North,351,0.0,0.0,76,0.00,CLR,,0.00,WeatherDisplay:10.37,2013-04-20 04:43:00,
2013-04-20 05:58:00,43.0,35.6,30.44,NNE,17,0.0,0.0,75,0.00,CLR,,0.00,WeatherDisplay:10.37,2013-04-20 04:58:00,
2013-04-20 06:13:00,42.4,35.4,30.44,NNE,22,0.0,0.0,76,0.00,CLR,,0.00,WeatherDisplay:10.37,2013-04-20 05:13:00,
2013-04-20 06:28:00,42.4,35.7,30.44,North,350,0.0,0.0,77,0.00,CLR,,0.00,WeatherDisplay:10.37,2013-04-20 05:28:00,
2013-04-20 06:43:00,42.4,36.1,30.44,NNE,22,0.0,0.0,78,0.00,CLR,,0.00,WeatherDisplay:10.37,2013-04-20 05:43:00,
2013-04-20 06:58:00,42.8,36.7,30.44,NNW,347,0.0,0.0,79,0.00,CLR,,0.00,WeatherDisplay:10.37,2013-04-20 05:58:00,
2013-04-20 07:13:00,43.5,37.8,30.44,NNE,22,0.0,0.0,80,0.00,CLR,,0.00,WeatherDisplay:10.37,2013-04-20 06:13:00,
2013-04-20 07:28:00,45.9,40.1,30.48,NE,52,0.0,1.0,80,0.00,CLR,,0.00,WeatherDisplay:10.37,2013-04-20 06:28:00,
2013-04-20 07:43:00,47.6,41.1,30.44,East,90,0.0,0.0,78,0.00,CLR,,0.00,WeatherDisplay:10.37,2013-04-20 06:43:00,
2013-04-20 07:58:00,49.1,41.9,30.48,East,90,0.0,0.0,76,0.00,CLR,,0.00,WeatherDisplay:10.37,2013-04-20 06:58:00,
2013-04-20 08:13:00,51.3,43.7,30.48,WNW,292,0.0,0.0,75,0.00,CLR,,0.00,WeatherDisplay:10.37,2013-04-20 07:13:00,
2013-04-20 08:28:00,52.2,42.7,30.44,SSW,213,0.0,0.0,70,0.00,CLR,,0.00,WeatherDisplay:10.37,2013-04-20 07:28:00,
2013-04-20 08:43:00,53.4,43.1,30.44,WSW,243,0.0,3.0,68,0.00,CLR,,0.00,WeatherDisplay:10.37,2013-04-20 07:43:00,
2013-04-20 08:58:00,54.3,41.9,30.44,South,170,1.0,5.0,63,0.00,CLR,,0.00,WeatherDisplay:10.37,2013-04-20 07:58:00,
2013-04-20 09:13:00,55.0,42.3,30.44,West,268,3.0,5.0,62,0.00,CLR,,0.00,WeatherDisplay:10.37,2013-04-20 08:13:00,
2013-04-20 09:28:00,55.8,42.1,30.44,South,181,3.0,8.0,60,0.00,CLR,,0.00,WeatherDisplay:10.37,2013-04-20 08:28:00,
2013-04-20 09:43:00,56.8,42.2,30.44,WSW,243,7.0,8.0,58,0.00,CLR,,0.00,WeatherDisplay:10.37,2013-04-20 08:43:00,
2013-04-20 09:58:00,57.4,41.3,30.44,SSW,195,6.0,7.0,55,0.00,CLR,,0.00,WeatherDisplay:10.37,2013-04-20 08:58:00,
2013-04-20 10:13:00,57.8,41.3,30.44,West,260,3.0,9.0,54,0.00,CLR,,0.00,WeatherDisplay:10.37,2013-04-20 09:13:00,
2013-04-20 10:28:00,57.9,40.9,30.44,SSW,202,5.0,8.0,53,0.00,CLR,,0.00,WeatherDisplay:10.37,2013-04-20 09:28:00,
2013-04-20 10:43:00,58.3,41.2,30.44,SSW,212,6.0,10.0,53,0.00,CLR,,0.00,WeatherDisplay:10.37,2013-04-20 09:43:00,
2013-04-20 10:58:00,57.4,40.4,30.44,SW,233,6.0,7.0,53,0.00,CLR,,0.00,WeatherDisplay:10.37,2013-04-20 09:58:00,
2013-04-20 11:13:00,57.1,40.6,30.44,SW,216,5.0,12.0,54,0.00,CLR,,0.00,WeatherDisplay:10.37,2013-04-20 10:13:00,
2013-04-20 11:28:00,57.0,40.0,30.44,SW,220,8.0,12.0,53,0.00,CLR,,0.00,WeatherDisplay:10.37,2013-04-20 10:28:00,
2013-04-20 11:43:00,57.7,40.2,30.42,West,261,3.0,12.0,52,0.00,CLR,,0.00,WeatherDisplay:10.37,2013-04-20 10:43:00,
2013-04-20 11:58:00,57.1,39.7,30.42,SW,222,7.0,12.0,52,0.00,CLR,,0.00,WeatherDisplay:10.37,2013-04-20 10:58:00,
2013-04-20 12:13:00,56.8,39.4,30.42,South,184,6.0,12.0,52,0.00,CLR,,0.00,WeatherDisplay:10.37,2013-04-20 11:13:00,
2013-04-20 12:28:00,57.6,40.1,30.42,SW,220,6.0,9.0,52,0.00,CLR,,0.00,WeatherDisplay:10.37,2013-04-20 11:28:00,
2013-04-20 12:43:00,57.9,39.9,30.42,WSW,257,8.0,12.0,51,0.00,CLR,,0.00,WeatherDisplay:10.37,2013-04-20 11:43:00,
2013-04-20 12:58:00,57.9,39.9,30.42,South,174,6.0,14.0,51,0.00,CLR,,0.00,WeatherDisplay:10.37,2013-04-20 11:58:00,
2013-04-20 13:13:00,57.7,39.2,30.42,SW,225,8.0,13.0,50,0.00,CLR,,0.00,WeatherDisplay:10.37,2013-04-20 12:13:00,
2013-04-20 13:28:00,57.7,39.2,30.42,SSW,194,6.0,17.0,50,0.00,CLR,,0.00,WeatherDisplay:10.37,2013-04-20 12:28:00,
2013-04-20 13:43:00,57.0,38.5,30.42,South,188,12.0,12.0,50,0.00,CLR,,0.00,WeatherDisplay:10.37,2013-04-20 12:43:00,
2013-04-20 13:58:00,57.7,39.2,30.39,South,186,6.0,14.0,50,0.00,CLR,,0.00,WeatherDisplay:10.37,2013-04-20 12:58:00,
2013-04-20 14:13:00,58.1,39.0,30.39,South,190,7.0,13.0,49,0.00,CLR,,0.00,WeatherDisplay:10.37,2013-04-20 13:13:00,
2013-04-20 14:28:00,58.3,39.2,30.39,SSW,198,6.0,12.0,49,0.00,CLR,,0.00,WeatherDisplay:10.37,2013-04-20 13:28:00,
2013-04-20 14:43:00,57.2,38.2,30.39,South,190,5.0,13.0,49,0.00,CLR,,0.00,WeatherDisplay:10.37,2013-04-20 13:43:00,
2013-04-20 14:58:00,57.6,38.5,30.39,SSW,204,6.0,9.0,49,0.00,CLR,,0.00,WeatherDisplay:10.37,2013-04-20 13:58:00,
2013-04-20 15:13:00,57.2,37.7,30.36,SSW,192,10.0,15.0,48,0.00,CLR,,0.00,WeatherDisplay:10.37,2013-04-20 14:13:00,
2013-04-20 15:28:00,57.1,38.2,30.36,SW,218,7.0,12.0,49,0.00,CLR,,0.00,WeatherDisplay:10.37,2013-04-20 14:28:00,
2013-04-20 15:43:00,56.5,38.1,30.36,South,189,8.0,13.0,50,0.00,CLR,,0.00,WeatherDisplay:10.37,2013-04-20 14:43:00,
2013-04-20 15:58:00,56.0,37.6,30.36,SSW,212,10.0,19.0,50,0.00,CLR,,0.00,WeatherDisplay:10.37,2013-04-20 14:58:00,
2013-04-20 16:13:00,55.9,37.6,30.33,SW,222,6.0,12.0,50,0.00,CLR,,0.00,WeatherDisplay:10.37,2013-04-20 15:13:00,
2013-04-20 16:28:00,56.3,38.9,30.33,SW,226,6.0,14.0,52,0.00,CLR,,0.00,WeatherDisplay:10.37,2013-04-20 15:28:00,
2013-04-20 16:43:00,56.1,38.7,30.33,SW,219,7.0,12.0,52,0.00,CLR,,0.00,WeatherDisplay:10.37,2013-04-20 15:43:00,
2013-04-20 16:58:00,55.4,38.1,30.33,South,188,3.0,15.0,52,0.00,CLR,,0.00,WeatherDisplay:10.37,2013-04-20 15:58:00,
2013-04-20 17:13:00,55.0,37.7,30.33,SW,225,8.0,9.0,52,0.00,CLR,,0.00,WeatherDisplay:10.37,2013-04-20 16:13:00,
2013-04-20 17:28:00,54.4,37.7,30.33,SSW,199,7.0,10.0,53,0.00,CLR,,0.00,WeatherDisplay:10.37,2013-04-20 16:28:00,
2013-04-20 17:43:00,54.0,37.2,30.33,SSW,192,3.0,13.0,53,0.00,CLR,,0.00,WeatherDisplay:10.37,2013-04-20 16:43:00,
2013-04-20 17:58:00,53.6,37.3,30.33,WSW,243,14.0,14.0,54,0.00,CLR,,0.00,WeatherDisplay:10.37,2013-04-20 16:58:00,
2013-04-20 18:13:00,53.2,37.5,30.30,SSW,211,2.0,14.0,55,0.00,CLR,,0.00,WeatherDisplay:10.37,2013-04-20 17:13:00,
2013-04-20 18:28:00,53.1,37.3,30.30,SW,229,7.0,8.0,55,0.00,CLR,,0.00,WeatherDisplay:10.37,2013-04-20 17:28:00,
2013-04-20 18:43:00,52.7,37.0,30.30,SW,223,7.0,13.0,55,0.00,CLR,,0.00,WeatherDisplay:10.37,2013-04-20 17:43:00,
2013-04-20 18:58:00,52.5,37.7,30.30,SSW,205,5.0,12.0,57,0.00,CLR,,0.00,WeatherDisplay:10.37,2013-04-20 17:58:00,
2013-04-20 19:13:00,52.2,38.3,30.30,South,177,9.0,17.0,59,0.00,CLR,,0.00,WeatherDisplay:10.37,2013-04-20 18:13:00,
2013-04-20 19:28:00,51.8,38.8,30.27,SSW,197,6.0,11.0,61,0.00,CLR,,0.00,WeatherDisplay:10.37,2013-04-20 18:28:00,
2013-04-20 19:43:00,51.6,39.0,30.27,SW,226,14.0,14.0,62,0.00,CLR,,0.00,WeatherDisplay:10.37,2013-04-20 18:43:00,
2013-04-20 19:58:00,51.4,39.3,30.27,SW,234,5.0,14.0,63,0.00,CLR,,0.00,WeatherDisplay:10.37,2013-04-20 18:58:00,
2013-04-20 20:13:00,51.1,39.3,30.27,SW,221,7.0,9.0,64,0.00,CLR,,0.00,WeatherDisplay:10.37,2013-04-20 19:13:00,
2013-04-20 20:28:00,51.0,39.3,30.27,SSW,209,9.0,13.0,64,0.00,CLR,,0.00,WeatherDisplay:10.37,2013-04-20 19:28:00,
2013-04-20 20:43:00,50.7,39.4,30.27,SW,221,3.0,9.0,65,0.00,CLR,,0.00,WeatherDisplay:10.37,2013-04-20 19:43:00,
2013-04-20 20:58:00,50.7,39.8,30.27,SW,234,3.0,9.0,66,0.00,CLR,,0.00,WeatherDisplay:10.37,2013-04-20 19:58:00,
2013-04-20 21:13:00,50.5,40.0,30.24,SW,228,6.0,10.0,67,0.00,CLR,,0.00,WeatherDisplay:10.37,2013-04-20 20:13:00,
2013-04-20 21:28:00,50.4,40.2,30.24,SW,228,6.0,10.0,68,0.00,CLR,,0.00,WeatherDisplay:10.37,2013-04-20 20:28:00,
2013-04-20 21:43:00,50.2,40.4,30.24,SW,236,2.0,8.0,69,0.00,CLR,,0.00,WeatherDisplay:10.37,2013-04-20 20:43:00,
2013-04-20 21:58:00,50.0,40.6,30.24,South,187,7.0,8.0,70,0.00,CLR,,0.00,WeatherDisplay:10.37,2013-04-20 20:58:00,
2013-04-20 22:13:00,49.8,40.8,30.21,WSW,249,5.0,9.0,71,0.00,CLR,,0.00,WeatherDisplay:10.37,2013-04-20 21:13:00,
2013-04-20 22:28:00,49.8,41.2,30.21,SSW,203,6.0,10.0,72,0.00,CLR,,0.00,WeatherDisplay:10.37,2013-04-20 21:28:00,
2013-04-20 22:43:00,49.6,41.3,30.21,WSW,239,9.0,14.0,73,0.00,CLR,,0.00,WeatherDisplay:10.37,2013-04-20 21:43:00,
2013-04-20 22:58:00,49.5,41.2,30.21,South,180,9.0,11.0,73,0.00,CLR,,0.00,WeatherDisplay:10.37,2013-04-20 21:58:00,
2013-04-20 23:13:00,49.3,41.7,30.21,SSW,208,6.0,16.0,75,0.00,CLR,,0.00,WeatherDisplay:10.37,2013-04-20 22:13:00,
2013-04-20 23:28:00,49.0,41.8,30.21,SSE,168,8.0,14.0,76,0.00,CLR,,0.00,WeatherDisplay:10.37,2013-04-20 22:28:00,
2013-04-20 23:43:00,49.1,41.9,30.21,WSW,238,2.0,9.0,76,0.00,CLR,,0.00,WeatherDisplay:10.37,2013-04-20 22:43:00,
2013-04-20 23:58:00,49.3,41.7,30.21,SSW,204,3.0,7.0,75,0.00,CLR,,0.00,WeatherDisplay:10.37,2013-04-20 22:58:00,